Location: B?ezina
(49.8085°N, 13.6013°E)
Time: 21:50:52
(UTC+00:00)

MetOp-A - Pass Details

Date: 19 May 2025
Orbit: 522 x 774 km, 98.3° (Epoch: 15 June)

Event Time Altitude Azimuth Distance (km) Brightness Sun altitude
Exits shadow 22:10:38 36° 188° (S) 1,207 4.5 -19.3°
Maximum altitude 22:12:41 66° 258° (WSW) 848 4.1 -19.4°
Drops below altitude 10° 22:17:51 10° 341° (NNW) 2,334 7.7 -19.5°
Sets 22:20:12 0° 344° (NNW) 3,258 8.9 -19.6°
